weather.gov     
National Weather Service

Regional Weather Roundup
NWS Homepage
This page is being discontinued on March 12, 2014.
The same data is available at this site. Please update your bookmarks.
Thank you, and we apologize for the inconvenience.
Please send an email to SR-SRH.Webmaster@noaa.gov with any concerns.


Current Version
Previous Version:    01  02  03  04  05  06  07  08  09  10  11  12  13  14  15  16  17  18  19  20  21  22  23  24  25  26  
[Printable]
061
ASUS44 KLCH 182110
RWRLCH
RWRLCH
REGIONAL WEATHER ROUNDUP
NATIONAL WEATHER SERVICE LAKE CHARLES LA
300 PM CST THU DEC 18 2014

Note: "fair" indicates few or no clouds below 12,000 feet with no
significant weather and/or obstructions to visibility.


ACROSS SOUTHEAST TEXAS

CITY           SKY/WX    TMP DP  RH WIND       PRES   REMARKS
BEAUMONT       CLOUDY    63  59  87 N8        30.05S FOG
BEAUMONT CITY  CLOUDY    59  58  94 N8        30.06S
ORANGE         CLOUDY    61  57  87 N5        30.07R FOG
JASPER         CLOUDY    60  54  81 N6        30.09F
$$

ACROSS CENTRAL LOUISIANA

CITY           SKY/WX    TMP DP  RH WIND       PRES   REMARKS
LEESVILLE      CLOUDY    55  53  92 NE3       30.08S
FULLERTON      LGT RAIN  56  51  84 CALM      30.06F
ALEXANDRIA INT CLOUDY    53  50  89 E3        30.10S
ESLER FIELD    CLOUDY    53  49  86 CALM      30.11S
DERIDDER       CLOUDY    56  53  91 CALM      30.09F
OAKDALE        CLOUDY    54  53  94 NE6       30.08F
OPELOUSAS      CLOUDY    55  52  88 NE8       30.08F
$$

ACROSS SOUTHWEST AND SOUTH CENTRAL LOUISIANA

CITY           SKY/WX    TMP DP  RH WIND       PRES   REMARKS
SULPHUR        CLOUDY    65  56  72 N7        30.06R
LAKE CHARLES   CLOUDY    63  55  75 NE10      30.05S
CHENNAULT INT  CLOUDY    61  54  77 N7        30.06F
CAMERON PHI    CLOUDY    64  63  94 E8        30.06S
DEQUINCY       CLOUDY    54  54 100 N3        30.07S
JENNINGS       CLOUDY    63  55  75 NE6       30.06S
LAFAYETTE      CLOUDY    63  57  81 NE5       30.08S
NEW IBERIA     CLOUDY    67  60  78 SE7       30.07F
ABBEVILLE      CLOUDY    62  59  89 SE8       30.06F
PATTERSON      CLOUDY    63  61  94 SE7       30.07F
SALT POINT       N/A     65  60  84 SE7       30.06F
$$

SELECTED SITES ACROSS THE REGION

CITY           SKY/WX    TMP DP  RH WIND       PRES   REMARKS
HOUSTON BUSH   CLOUDY    68  63  83 N5        30.03S
HOUSTON HOBBY  PTSUNNY   70  64  81 N5        30.02F
GALVESTON      CLOUDY    66  65  96 N7        30.03S FOG
COLLEGE STAT   CLOUDY    60  54  80 N6        30.06S
CONROE         CLOUDY    66  59  78 E5        30.05S
HUNTSVILLE     CLOUDY    63  55  75 VRB3      30.06S
LUFKIN         CLOUDY    59  50  72 NE5       30.08F
SHREVEPORT     CLOUDY    52  46  80 NE3       30.11F
MONROE         CLOUDY    54  46  74 NE5       30.14F
NATCHEZ MS     CLOUDY    48  46  93 E7        30.13S
BATON ROUGE    CLOUDY    62  53  72 N6        30.09S
N.O. INTL ARPT CLOUDY    68  54  60 SE7       30.09S
SLIDELL        CLOUDY    63  51  65 SE7       30.10S
$$

MARINE REPORTS

STATION/POSITION TIME  TEMP    WIND        PRES    VSBY  WAVE
                       AIR SEA DIR/SP/G                  HT/PER
                 (UTC) (F)     (DEG/KT/KT) (MB)    (MI)  (FT/S)
BUOY 30 S HIGH I 2100   65 65   30/  4/  4 1016.3F         3/ 6
SEA RIM ST PARK  2100   62      40/  7/  9 1017.6S
PORT ARTHUR      2100      62   CALM  /  3 1017.3S
SABINE PASS N    2100   63 62   30/  5/  7 1016.9F
TEXAS POINT      NOT AVBL
CALCASIEU PASS   2100   65 61  110/  3/  5   N/A
LK CHARLES BEACH 2100   62 62              1017.7R
MARSH ISLAND     NOT AVBL
FRESH WATER LOCK 2100   63 61   70/ 10/ 13 1017.2F
AMERADA PASS     2100   63 53  120/  4/  7 1018.2R
$$




U.S. Dept. of Commerce
NOAA National Weather Service
1325 East West Highway
Silver Spring, MD 20910
E-mail: w-nws.webmaster@noaa.gov
Page last modified: May 16, 2007
NATIONAL WEATHER SERVICE: for Safety, for Work, for Fun - FOR LIFE